Arar current weather conditions

sailwx.info

Wind from 320 at 12 knots

Air temperature 29.0° C
Dewpoint 15.0° C

Last reported at 2014-Jul-29 01:00 UTC.
Time now 2014-Jul-29 02:44 UTC

Location: N 30°54' E 041°08'.
View on Google Maps.

See reports from other nearby stations

  
Tides and Currents Weather Stations Pressure Air Temp Water Temp Dewpoint Dewpoint Depression Visibility Wind Speed Wind Dir Waves Ship Positions
date/time (UTC)wind fromknots sea level pressurealtimeterstation pressurevisibilityair tempwater tempwave heightnotes
2014-Jul-29 01:00 320 12 29.0
2014-Jul-29 00:00 350 12 30.0
2014-Jul-28 23:00 340 11 30.0
2014-Jul-28 22:00 330 10 31.0
2014-Jul-28 21:00 280 7 30.0
2014-Jul-28 20:00 280 7 31.0
2014-Jul-28 19:00 270 9 32.0
2014-Jul-28 18:00 270 6 34.0
2014-Jul-28 17:00 290 5 35.0
2014-Jul-28 16:00 320 9 38.0
2014-Jul-28 15:00 310 13 39.0
2014-Jul-28 14:00 300 15 40.0
2014-Jul-28 13:00 300 13 40.0
2014-Jul-28 12:00 290 15 40.0
2014-Jul-28 11:00 320 16 40.0
2014-Jul-28 10:00 300 10 39.0
2014-Jul-28 09:00 290 4 37.0
2014-Jul-28 08:00 300 6 37.0
2014-Jul-28 07:00 330 4 35.0
2014-Jul-28 06:00 350 6 33.0
2014-Jul-28 05:00 290 10 30.0
2014-Jul-28 04:00 310 6 28.0
2014-Jul-28 03:00 280 10 26.0
2014-Jul-28 02:00 290 10 27.0
2014-Jul-28 01:00 290 8 28.0
2014-Jul-28 00:00 320 10 29.0
2014-Jul-27 23:00 320 10 30.0
2014-Jul-27 22:00 300 8 30.0
2014-Jul-27 21:00 310 8 31.0
2014-Jul-27 20:00 330 8 32.0
2014-Jul-27 19:00 330 10 33.0
2014-Jul-27 18:00 320 12 35.0
2014-Jul-27 17:00 250 4 36.0
2014-Jul-27 16:00 280 8 38.0
2014-Jul-27 15:00 270 6 39.0
2014-Jul-27 14:00 250 3 40.0
2014-Jul-27 13:00 290 6 40.0
2014-Jul-27 12:00 300 10 40.0
2014-Jul-27 11:00 310 5 40.0
2014-Jul-27 10:00 340 6 40.0
2014-Jul-27 09:00 340 9 39.0
2014-Jul-27 08:00 350 7 38.0
2014-Jul-27 07:00 360 10 36.0
2014-Jul-27 06:00 340 12 34.0
2014-Jul-27 05:00 360 17 31.0
2014-Jul-27 04:00 350 13 28.0
2014-Jul-27 03:00 350 10 27.0
2014-Jul-27 02:00 300 11 28.0